Volver al catálogo

STARLINK-34249

ActivoComunicacionesVLEO
NORAD 65376·PAYLOAD·🇺🇸 United States

Lanzado Aug 28, 2025 desde Cape Canaveral Space Force Station

Loading…

Próximos Pases (próximas 24 horas)

TLE

ActualizadoSource: CelesTrak SupGP

Época: Sep 15, 2026, 03:07 UTC

1 65376C 25190AB  26258.13034722  .00069728  00000+0  20599-2 0  2585
2 65376  53.1597   4.5128 0001214  91.8854 205.4777 15.34358544    17

Sigue STARLINK-34249 en tiempo real con AllMySat

Download on the App Store